This is the latest recevied weather packets stored in our database for station/object N5PRN. If no packets are shown the sender has not sent any weather packets the latest 10 day(s).
| Time | Temp. | Humidity | Pressure | Rain* | Wind** | Luminosity | Snow |
|---|---|---|---|---|---|---|---|
| 1777948303 | 18.89° C | 83% | 1011.6 hPa | 0 mm | - | 0 W/m² | - |
| 1777948000 | 18.89° C | 83% | 1011.6 hPa | 0 mm | - | 0 W/m² | - |
| 1777947697 | 19.44° C | 81% | 1011.4 hPa | 0 mm | - | 0 W/m² | - |
| 1777947394 | 19.44° C | 81% | 1011.3 hPa | 0 mm | - | 0 W/m² | - |
| 1777947090 | 19.44° C | 79% | 1011.4 hPa | 0 mm | - | 0 W/m² | - |
| 1777946786 | 19.44° C | 79% | 1011.3 hPa | 0 mm | - | 0 W/m² | - |
| 1777946482 | 19.44° C | 79% | 1011.1 hPa | 0 mm | - | 0 W/m² | - |
| 1777946180 | 19.44° C | 78% | 1011.2 hPa | 0 mm | - | 0 W/m² | - |
| 1777945876 | 19.44° C | 80% | 1011.2 hPa | 0 mm | - | 0 W/m² | - |
| 1777945573 | 19.44° C | 80% | 1011.1 hPa | 0 mm | - | 0 W/m² | - |
| 1777945270 | 19.44° C | 81% | 1010.9 hPa | 0 mm | - | 0 W/m² | - |
| 1777944967 | 20° C | 79% | 1011.1 hPa | 0 mm | - | 0 W/m² | - |
| 1777944665 | 20° C | 79% | 1011.1 hPa | 0 mm | - | 0 W/m² | - |
| 1777944363 | 20° C | 79% | 1011.4 hPa | 0 mm | - | 0 W/m² | - |
| 1777944059 | 20.56° C | 76% | 1011.2 hPa | 0 mm | - | 0 W/m² | - |
| 1777943755 | 20.56° C | 75% | 1011.3 hPa | 0 mm | - | 0 W/m² | - |
| 1777943452 | 21.11° C | 73% | 1011.2 hPa | 0 mm | - | 0 W/m² | - |
| 1777943147 | 21.11° C | 72% | 1011.4 hPa | 0 mm | - | 0 W/m² | - |
| 1777942844 | 21.11° C | 72% | 1011.4 hPa | 0 mm | - | 0 W/m² | - |
| 1777942540 | 21.67° C | 71% | 1011.5 hPa | 0 mm | - | 0 W/m² | - |
| 1777942238 | 21.67° C | 70% | 1011.3 hPa | 0 mm | - | 0 W/m² | - |
| 1777941935 | 21.67° C | 70% | 1011.4 hPa | 0 mm | - | 3 W/m² | - |
| 1777941632 | 22.22° C | 69% | 1011.1 hPa | 0 mm | - | 6 W/m² | - |
| 1777941329 | 22.22° C | 69% | 1011.1 hPa | 0 mm | - | 9 W/m² | - |
| 1777941027 | 22.22° C | 69% | 1011 hPa | 0 mm | - | 13 W/m² | - |
* Rain latest hour (hover to see other rain measurements)
** Current wind speed in m/s (hover to see current wind gust speed)